Weather History for EHRD - May, 2014

Change the Weather History Date:

Sunday, May 11, 2014

  Actual Average Record
Temperature  
Mean Temperature 52 °F -  
Max Temperature 54 °F 63 °F 86 °F (1998)
Min Temperature 50 °F 48 °F 35 °F (2005)
Degree Days  
Heating Degree Days 13    
Growing Degree Days 2 (Base 50)    
Moisture  
Dew Point 46 °F    
Average Humidity 80    
Maximum Humidity 94    
Minimum Humidity 65    
Precipitation  
Precipitation 0.16 in - - ()
Sea Level Pressure  
Sea Level Pressure 29.56 in    
Wind  
Wind Speed 21 mph ()    
Max Wind Speed 28 mph    
Max Gust Speed 44 mph    
Visibility 6.9 miles    
Events Rain    
Averages and records for this station are not official NWS values.
T = Trace of Precipitation, MM = Missing Value Source: Averaged Metar Reports

Daily Weather History Graph

Daily Weather History Graph

Search for Another Location

Airport or City:

Trip Planner

Search our weather history database for the weather conditions in past years. The results will help you decide how hot, cold, wet, or windy it might be!

Date:

Astronomy

May. 11, 2014 Rise Set
Actual Time 5:55 AM CEST 9:23 PM CEST
Civil Twilight 5:14 AM CEST 10:04 PM CEST
Nautical Twilight 4:18 AM CEST 11:00 PM CEST
Astronomical Twilight 3:00 AM CEST 12:21 AM CEST
Moon 5:38 PM CEST (5/11) 4:20 AM CEST (5/11)
Length of Visible Light 16h 50m
Length of Day
15h 27m
Waxing Gibbous, 87% of the Moon is Illuminated
May 11
Waxing Gibbous
May 14
Full
May 21
Last Quarter
May 28
New
Jun 5
First Quarter

Hourly Weather History & Observations

Time (CEST) Temp. Dew Point Humidity Pressure Visibility Wind Dir Wind Speed Gust Speed Precip Events Conditions
12:00 AM 54 °F 48 °F 73% 29.55 in 6 mi SW 24.6 mph - -   Light Haze
12:25 AM 53.6 °F 48.2 °F 82% 29.53 in 5.6 mi WSW 23.0 mph - N/A   Overcast
12:55 AM 53.6 °F 48.2 °F 82% 29.53 in 5.6 mi WSW 24.2 mph 36.8 mph N/A   Mostly Cloudy
1:00 AM 53 °F 47 °F 73% 29.55 in 6 mi SW 26.8 mph - - Rain Rain
1:25 AM 51.8 °F 46.4 °F 82% 29.53 in 6.2 mi SW 23.0 mph 34.5 mph N/A   Mostly Cloudy
1:55 AM 53.6 °F 46.4 °F 77% 29.53 in 6.2 mi WSW 24.2 mph 35.7 mph N/A   Partly Cloudy
2:00 AM 53 °F 45 °F 65% 29.55 in 8 mi SW 22.4 mph - -   Partly Cloudy
2:25 AM 51.8 °F 44.6 °F 76% 29.53 in 6.2 mi SW 19.6 mph 31.1 mph N/A   Mostly Cloudy
2:55 AM 53.6 °F 44.6 °F 72% 29.50 in 6.2 mi WSW 27.6 mph 43.7 mph N/A   Mostly Cloudy
3:00 AM 53 °F 46 °F 68%  in 7 mi SW 26.8 mph - -   Overcast
3:25 AM 51.8 °F 46.4 °F 82% 29.50 in 5.6 mi WSW 25.3 mph 39.1 mph N/A Rain Light Rain
3:55 AM 51.8 °F 46.4 °F 82% 29.50 in 6.2 mi WSW 21.9 mph - N/A   Light Drizzle
4:00 AM 52 °F 46 °F 74% 29.52 in 6 mi SW 24.6 mph - - Rain Drizzle
4:25 AM 51.8 °F 44.6 °F 76% 29.50 in 6.2 mi WSW 25.3 mph - N/A   Mostly Cloudy
4:55 AM 50.0 °F 46.4 °F 87% 29.50 in 5.0 mi WSW 19.6 mph - N/A Rain Light Rain
5:00 AM 50 °F 47 °F 85% 29.52 in 4 mi WSW 20.1 mph - - Rain Light Rain Showers
5:25 AM 50.0 °F 46.4 °F 87% 29.50 in 5.0 mi SW 19.6 mph - N/A Rain Light Rain
5:55 AM 50.0 °F 44.6 °F 82% 29.50 in 6.2 mi WSW 21.9 mph - N/A Rain Light Rain
6:00 AM 51 °F 45 °F 74% 29.51 in 8 mi WSW 20.1 mph - - Rain Light Rain
6:25 AM 50.0 °F 44.6 °F 82% 29.50 in 6.2 mi WSW 23.0 mph - N/A Rain Light Rain
6:55 AM 50.0 °F 44.6 °F 82% 29.50 in 6.2 mi SW 21.9 mph 34.5 mph N/A Rain Light Drizzle
7:00 AM 50 °F 45 °F 75% 29.51 in 8 mi WSW 22.4 mph - - Rain Light Drizzle
7:25 AM 50.0 °F 44.6 °F 82% 29.50 in 6.2 mi WSW 23.0 mph - N/A   Drizzle
7:55 AM 50.0 °F 44.6 °F 82% 29.50 in 6.2 mi WSW 21.9 mph 34.5 mph N/A Rain Light Rain
8:00 AM 51 °F 44 °F 71% 29.52 in 7 mi WSW 24.6 mph - - Rain Light Rain
8:25 AM 50.0 °F 44.6 °F 82% 29.50 in 6.2 mi WSW 21.9 mph - N/A Rain Light Rain
8:55 AM 51.8 °F 42.8 °F 71% 29.50 in 6.2 mi WSW 24.2 mph 40.3 mph N/A   Overcast
9:00 AM 51 °F 44 °F 69% 29.52 in 11 mi WSW 22.4 mph - - Rain Rain
9:25 AM 51.8 °F 44.6 °F 76% 29.50 in 6.2 mi WSW 21.9 mph - N/A   Drizzle
9:55 AM 50.0 °F 46.4 °F 87% 29.50 in 3.7 mi SW 21.9 mph 35.7 mph N/A Rain Light Rain
10:00 AM 50 °F 47 °F 85% 29.53 in 6 mi SW 17.9 mph - - Rain Light Rain Showers
10:25 AM 50.0 °F 46.4 °F 87% 29.50 in 5.6 mi SW 19.6 mph 32.2 mph N/A Rain Light Rain
10:55 AM 51.8 °F 46.4 °F 82% 29.50 in 6.2 mi SW 18.4 mph 33.4 mph N/A   Light Drizzle
11:00 AM 50 °F 47 °F 84% 29.54 in 5 mi WSW 20.1 mph - - Rain Rain
11:25 AM 51.8 °F 46.4 °F 82% 29.53 in 6.2 mi SW 20.7 mph - N/A Rain Light Drizzle
11:55 AM 51.8 °F 46.4 °F 82% 29.53 in 6.2 mi WSW 20.7 mph 32.2 mph N/A Rain Drizzle
12:00 PM 52 °F 46 °F 74% 29.54 in 11 mi WSW 22.4 mph - - Rain Light Drizzle
12:25 PM 51.8 °F 46.4 °F 82% 29.53 in 6.2 mi WSW 24.2 mph 35.7 mph N/A Rain Drizzle
12:55 PM 51.8 °F 46.4 °F 82% 29.53 in 6.2 mi WSW 25.3 mph - N/A   Drizzle
1:00 PM 52 °F 46 °F 75% 29.55 in 13 mi WSW 26.8 mph - - Rain Light Rain
1:25 PM 51.8 °F 46.4 °F 82% 29.53 in 6.2 mi WSW 24.2 mph 39.1 mph N/A Rain Drizzle
1:55 PM 51.8 °F 48.2 °F 88% 29.53 in 4.3 mi WSW 26.5 mph - N/A Rain Light Rain
2:00 PM 51 °F 48 °F 87% 29.57 in 4 mi WSW 26.8 mph - - Rain Rain
2:25 PM 51.8 °F 48.2 °F 88% 29.56 in 6.2 mi WSW 27.6 mph - N/A Rain Light Rain
2:55 PM 50.0 °F 48.2 °F 94% 29.56 in 5.0 mi WSW 20.7 mph - N/A Rain Light Rain Showers
3:00 PM 51 °F 49 °F 90% 29.58 in 6 mi WSW 22.4 mph - - Rain Light Rain
3:25 PM 51.8 °F 48.2 °F 88% 29.56 in 6.2 mi WSW 20.7 mph 32.2 mph N/A Rain Light Rain Showers
3:55 PM 51.8 °F 48.2 °F 88% 29.56 in 6.2 mi WSW 21.9 mph - N/A Rain Light Rain Showers
4:00 PM 51 °F 49 °F 88% 29.60 in 7 mi WSW 20.1 mph - - Rain Light Rain
4:25 PM 51.8 °F 48.2 °F 88% 29.59 in 6.2 mi WSW 18.4 mph 29.9 mph N/A Rain Light Rain
4:55 PM 53.6 °F 48.2 °F 82% 29.59 in 6.2 mi WSW 21.9 mph 33.4 mph N/A   Drizzle
5:00 PM 53 °F 47 °F 75% 29.61 in 13 mi WSW 24.6 mph - - Rain Light Drizzle
5:25 PM 53.6 °F 48.2 °F 82% 29.59 in 6.2 mi WSW 23.0 mph - N/A   Mostly Cloudy
5:55 PM 53.6 °F 46.4 °F 77% 29.59 in 6.2 mi WSW 18.4 mph 29.9 mph N/A   Mostly Cloudy
6:00 PM 54 °F 46 °F 67% 29.61 in 14 mi WSW 20.1 mph - - Rain Rain
6:25 PM 53.6 °F 46.4 °F 77% 29.59 in 6.2 mi WSW 23.0 mph 35.7 mph N/A   Scattered Clouds
6:55 PM 53.6 °F 46.4 °F 77% 29.59 in 6.2 mi WSW 21.9 mph - N/A   Mostly Cloudy
7:00 PM 54 °F 46 °F 67% 29.62 in 15 mi WSW 20.1 mph - -   Partly Cloudy
7:25 PM 53.6 °F 46.4 °F 77% 29.59 in 6.2 mi WSW 20.7 mph - N/A   Mostly Cloudy
7:55 PM 53.6 °F 46.4 °F 77% 29.62 in 6.2 mi WSW 20.7 mph - N/A   Mostly Cloudy
8:00 PM 54 °F 47 °F 71% 29.63 in 10 mi WSW 20.1 mph - -   Partly Cloudy
8:25 PM 53.6 °F 48.2 °F 82% 29.62 in 6.2 mi WSW 18.4 mph - N/A   Overcast
8:55 PM 53.6 °F 48.2 °F 82% 29.62 in 6.2 mi WSW 20.7 mph - N/A   Overcast
9:00 PM 53 °F 48 °F 76% 29.64 in 7 mi WSW 20.1 mph - - Rain Light Rain
9:25 PM 53.6 °F 48.2 °F 82% 29.62 in 6.2 mi WSW 19.6 mph - N/A   Scattered Clouds
9:55 PM 50.0 °F 44.6 °F 82% 29.65 in 6.2 mi Variable 8.1 mph - N/A   Mostly Cloudy
10:00 PM 50 °F 45 °F 75% 29.66 in 19 mi West 8.9 mph - - Rain Light Rain Showers
10:25 PM 53.6 °F 46.4 °F 77% 29.65 in 6.2 mi WSW 17.3 mph - N/A   Drizzle
10:55 PM 53.6 °F 48.2 °F 82% 29.65 in 6.2 mi WSW 17.3 mph - N/A   Mostly Cloudy
11:00 PM 53 °F 47 °F 75% 29.65 in 8 mi WSW 20.1 mph - - Rain Rain
11:25 PM 53.6 °F 46.4 °F 77% 29.65 in 6.2 mi WSW 18.4 mph - N/A   Overcast
11:55 PM 53.6 °F 48.2 °F 82% 29.65 in 6.2 mi WSW 18.4 mph - N/A   Mostly Cloudy